This is the latest recevied weather packets stored in our database for station/object KB4NWJ. If no packets are shown the sender has not sent any weather packets the latest 10 day(s).
| Time | Temp. | Humidity | Pressure | Rain* | Wind** | Luminosity | Snow |
|---|---|---|---|---|---|---|---|
| 1777642856 | 12.78° C | 80% | 1015.6 hPa | 0 mm | - | 120 W/m² | - |
| 1777642554 | 12.78° C | 82% | 1015.2 hPa | 0 mm | - | 98 W/m² | - |
| 1777642250 | 12.78° C | 81% | 1015.2 hPa | 0 mm | - | 94 W/m² | - |
| 1777641947 | 12.78° C | 81% | 1015.3 hPa | 0 mm | - | 99 W/m² | - |
| 1777641643 | 12.78° C | 80% | 1015.5 hPa | 0 mm | - | 95 W/m² | - |
| 1777641338 | 13.33° C | 80% | 1015.4 hPa | 0 mm | - | 151 W/m² | - |
| 1777641034 | 12.78° C | 83% | 1015.4 hPa | 0 mm | - | 122 W/m² | - |
| 1777640730 | 12.78° C | 82% | 1015.1 hPa | 0 mm | - | 102 W/m² | - |
| 1777640427 | 12.78° C | 81% | 1014.9 hPa | 0 mm | - | 100 W/m² | - |
| 1777640124 | 12.78° C | 81% | 1015.1 hPa | 0 mm | - | 120 W/m² | - |
| 1777639821 | 12.78° C | 81% | 1015.1 hPa | 0 mm | - | 106 W/m² | - |
| 1777639518 | 12.78° C | 80% | 1015.2 hPa | 0 mm | - | 74 W/m² | - |
| 1777639215 | 12.78° C | 80% | 1014.7 hPa | 0 mm | - | 72 W/m² | - |
| 1777638911 | 12.78° C | 80% | 1014.5 hPa | 0 mm | - | 49 W/m² | - |
| 1777638606 | 12.78° C | 81% | 1014.7 hPa | 0 mm | - | 59 W/m² | - |
| 1777638304 | 12.22° C | 81% | 1014.7 hPa | 0 mm | - | 61 W/m² | - |
| 1777637999 | 12.22° C | 79% | 1014.9 hPa | 0 mm | - | 56 W/m² | - |
| 1777637696 | 12.22° C | 80% | 1014.9 hPa | 0 mm | - | 54 W/m² | - |
| 1777637393 | 12.22° C | 81% | 1014.9 hPa | 0 mm | - | 60 W/m² | - |
| 1777637084 | 12.22° C | 81% | 1015.1 hPa | 0 mm | - | 58 W/m² | - |
| 1777636779 | 12.22° C | 81% | 1014.7 hPa | 0 mm | - | 50 W/m² | - |
| 1777636476 | 12.22° C | 80% | 1014.9 hPa | 0 mm | - | 39 W/m² | - |
| 1777636172 | 12.22° C | 80% | 1014.7 hPa | 0 mm | - | 28 W/m² | - |
| 1777635867 | 12.22° C | 79% | 1014.7 hPa | 0 mm | - | 19 W/m² | - |
| 1777635564 | 12.22° C | 81% | 1014.6 hPa | 0 mm | - | 18 W/m² | - |
* Rain latest hour (hover to see other rain measurements)
** Current wind speed in m/s (hover to see current wind gust speed)